Saranac Lake, NY

10:12 AM EDT on May 27, 2017 (GMT -0400)
Adirondack Regional

Weather History for KSLK - December, 2014

Change the Weather History Date:

Tuesday, December 23, 2014

  Actual Average Record
Temperature  
Mean Temperature 30 °F 16 °F  
Max Temperature 37 °F 27 °F 58 °F (1949)
Min Temperature 23 °F 6 °F -26 °F (1989)
Degree Days  
Heating Degree Days 35 49  
Month to date heating degree days 961 1026  
Since 1 July heating degree days 3125 3301  
Cooling Degree Days 0 0  
Month to date cooling degree days 0 0  
Year to date cooling degree days 83 114  
Moisture  
Dew Point 31 °F    
Average Humidity 92    
Maximum Humidity 100    
Minimum Humidity 84    
Precipitation  
Precipitation 0.25 in 0.07 in 0.88 in (1990)
Month to date precipitation 1.10 1.80  
Year to date precipitation 34.32 37.03  
Sea Level Pressure  
Sea Level Pressure 30.09 in    
Wind  
Wind Speed 5 mph (NE)    
Max Wind Speed 12 mph    
Max Gust Speed 14 mph    
Visibility 6 miles    
Events Rain , Snow    
T = Trace of Precipitation, MM = Missing Value Source: NWS Daily Summary

Daily Weather History Graph

Daily Weather History Graph

Search for Another Location

Airport or City:

Trip Planner

Search our weather history database for the weather conditions in past years. The results will help you decide how hot, cold, wet, or windy it might be!

Date:

Astronomy

Dec. 23, 2014 Rise Set
Actual Time 7:30 AM EST 4:21 PM EST
Civil Twilight 6:57 AM EST 4:54 PM EST
Nautical Twilight 6:20 AM EST 5:31 PM EST
Astronomical Twilight 5:45 AM EST 6:06 PM EST
Moon 8:29 AM EST (12/23) 6:38 PM EST (12/23)
Length of Visible Light 9h 57m
Length of Day
8h 50m
Waxing Crescent, 4% of the Moon is Illuminated
Dec 23
Waxing Crescent
Dec 28
First Quarter
Jan 4
Full
Jan 13
Last Quarter
Jan 20
New

Hourly Weather History & Observations

Time (EST) Temp. Windchill Dew Point Humidity Pressure Visibility Wind Dir Wind Speed Gust Speed Precip Events Conditions
12:00 AM 23.0 °F 15.8 °F 21.0 °F 92% 30.13 in 9.0 mi NNE 5.8 mph - N/A   Mostly Cloudy
12:51 AM 26.1 °F 18.4 °F 23.0 °F 88% 30.19 in 10.0 mi NE 6.9 mph - N/A   Overcast
1:51 AM 25.0 °F 18.1 °F 23.0 °F 92% 30.19 in 7.0 mi NE 5.8 mph - N/A   Overcast
1:58 AM 25.0 °F 18.1 °F 23.0 °F 92% 30.12 in 5.0 mi NNE 5.8 mph - 0.00 in Snow Light Snow
2:13 AM 25.0 °F 18.1 °F 23.0 °F 92% 30.13 in 2.0 mi NNE 5.8 mph - 0.00 in Snow Light Snow
2:29 AM 26.1 °F 16.8 °F 24.1 °F 92% 30.13 in 1.2 mi NE 9.2 mph - 0.01 in Snow Light Snow
2:51 AM 26.1 °F 17.6 °F 25.0 °F 96% 30.19 in 1.0 mi ENE 8.1 mph - 0.03 in Snow Light Snow
3:18 AM 27.0 °F - 26.1 °F 96% 30.12 in - North - - 0.01 in   Unknown
3:46 AM 28.4 °F 19.1 °F 26.6 °F 93% 30.12 in 1.0 mi ENE 10.4 mph - 0.03 in Snow Light Snow
3:51 AM 28.0 °F 18.6 °F 26.1 °F 92% 30.18 in 1.0 mi ENE 10.4 mph - 0.03 in Snow Light Snow
4:06 AM 28.0 °F 20.0 °F 26.1 °F 92% 30.11 in 1.2 mi ENE 8.1 mph - 0.02 in Snow Light Snow
4:27 AM 28.0 °F 18.6 °F 26.1 °F 92% 30.10 in 2.0 mi ENE 10.4 mph - 0.04 in Snow Light Snow
4:36 AM 28.0 °F 19.3 °F 27.0 °F 96% 30.09 in 4.0 mi ENE 9.2 mph - 0.05 in Snow Light Snow
4:51 AM 28.9 °F 19.8 °F 28.0 °F 96% 30.15 in - ENE 10.4 mph - 0.05 in Rain Light Freezing Rain
5:36 AM 30.0 °F 21.7 °F 28.9 °F 96% 30.08 in 7.0 mi ENE 9.2 mph - 0.03 in   Overcast
5:51 AM 30.0 °F 23.2 °F 28.9 °F 96% 30.09 in 6.0 mi ENE 6.9 mph - 0.03 in Rain Light Freezing Rain
6:26 AM 30.9 °F 25.2 °F 30.0 °F 96% 30.09 in 7.0 mi ENE 5.8 mph - 0.01 in Rain Light Freezing Rain
6:51 AM 32.0 °F 25.6 °F 30.9 °F 96% 30.09 in 6.0 mi ENE 6.9 mph - 0.01 in Rain Light Freezing Rain
6:58 AM 32.0 °F 24.8 °F 30.0 °F 92% 30.10 in 5.0 mi ENE 8.1 mph - 0.01 in Rain Light Freezing Rain
7:11 AM 32.0 °F 25.6 °F 30.0 °F 92% 30.09 in 4.0 mi ENE 6.9 mph - 0.02 in Rain Light Freezing Rain
7:32 AM 32.0 °F 25.6 °F 30.9 °F 96% 30.09 in 5.0 mi ENE 6.9 mph - 0.03 in   Overcast
7:41 AM 32.0 °F 26.4 °F 30.9 °F 96% 30.10 in 4.0 mi ENE 5.8 mph - 0.03 in Rain Light Freezing Rain
7:51 AM 32.0 °F 25.6 °F 30.9 °F 96% 30.17 in 3.0 mi ENE 6.9 mph - 0.04 in Rain Light Freezing Rain
7:54 AM 32.0 °F 25.6 °F 30.9 °F 96% 30.10 in 2.5 mi ENE 6.9 mph - 0.00 in   Overcast
8:05 AM 32.0 °F 26.4 °F 30.9 °F 96% 30.09 in 5.0 mi ENE 5.8 mph - 0.00 in   Overcast
8:42 AM 32.0 °F 26.4 °F 30.9 °F 96% 30.10 in 10.0 mi NE 5.8 mph - 0.00 in   Overcast
8:51 AM 32.0 °F 26.4 °F 32.0 °F 100% 30.16 in 10.0 mi NE 5.8 mph - 0.00 in   Overcast
9:03 AM 32.0 °F - 32.0 °F 100% 30.10 in - North - - N/A   Unknown
9:51 AM - - - N/A% 30.09 in - North - - N/A   Unknown
10:46 AM 33.8 °F 29.6 °F 33.8 °F 100% 30.08 in 10.0 mi NNE 4.6 mph - N/A   Overcast
10:51 AM 34.0 °F 28.8 °F 33.1 °F 96% 30.14 in 10.0 mi NE 5.8 mph - N/A   Overcast
11:02 AM 34.0 °F 28.8 °F 33.1 °F 96% 30.07 in 10.0 mi NE 5.8 mph - N/A   Overcast
11:35 AM 34.0 °F - 33.1 °F 96% 30.06 in 10.0 mi Calm Calm - N/A   Overcast
11:51 AM 35.1 °F - 33.1 °F 92% 30.11 in 10.0 mi Calm Calm - N/A   Overcast
12:20 PM 36.0 °F - 33.1 °F 89% 30.04 in 10.0 mi Calm Calm - N/A   Overcast
12:29 PM 36.0 °F - 34.0 °F 93% 30.04 in 10.0 mi Calm Calm - N/A   Overcast
12:51 PM 36.0 °F 33.3 °F 34.0 °F 93% 30.09 in 10.0 mi North 3.5 mph - N/A   Overcast
1:39 PM 35.1 °F 29.3 °F 34.0 °F 96% 30.03 in 10.0 mi ENE 6.9 mph - 0.01 in   Overcast
1:51 PM 35.1 °F 31.0 °F 34.0 °F 96% 30.09 in 10.0 mi ENE 4.6 mph - 0.01 in   Overcast
2:14 PM 35.1 °F 32.2 °F 34.0 °F 96% 30.03 in 4.0 mi NNE 3.5 mph - 0.01 in Snow Light Snow
2:39 PM 35.1 °F 30.1 °F 33.1 °F 92% 30.03 in 1.8 mi NE 5.8 mph - 0.03 in Snow Light Snow
2:51 PM 35.1 °F 31.0 °F 34.0 °F 96% 30.09 in 2.0 mi NNE 4.6 mph - 0.04 in Snow Light Snow
2:57 PM 35.1 °F 31.0 °F 34.0 °F 96% 30.03 in 5.0 mi NNE 4.6 mph - 0.00 in Snow Light Snow
3:51 PM 35.1 °F - 35.1 °F 100% 30.09 in 7.0 mi Calm Calm - 0.00 in   Overcast
4:51 PM 35.1 °F - 34.0 °F 96% 30.09 in 9.0 mi Calm Calm - N/A   Overcast
5:25 PM 34.0 °F - 34.0 °F 100% 30.04 in 4.0 mi Calm Calm - 0.00 in Rain Rain
5:51 PM 34.0 °F 31.0 °F 33.1 °F 96% 30.08 in 3.0 mi North 3.5 mph - 0.00 in Rain Light Rain
6:03 PM 35.1 °F 32.2 °F 35.1 °F 100% 30.03 in 9.0 mi NNE 3.5 mph - 0.00 in   Overcast
6:32 PM 35.1 °F 31.0 °F 34.0 °F 96% 30.02 in 9.0 mi NNE 4.6 mph - 0.00 in   Overcast
6:51 PM 35.1 °F 30.1 °F 34.0 °F 96% 30.08 in 10.0 mi NE 5.8 mph - 0.00 in   Overcast
7:51 PM 34.0 °F - 34.0 °F 100% 30.09 in 3.0 mi Calm Calm - 0.00 in   Overcast
8:03 PM 34.0 °F - 33.1 °F 96% 30.04 in 2.5 mi Calm Calm - 0.01 in Snow Light Snow
8:12 PM 35.1 °F 32.2 °F 35.1 °F 100% 30.03 in 3.0 mi NNE 3.5 mph - 0.01 in Snow Light Snow
8:51 PM 35.1 °F 32.2 °F 35.1 °F 100% 30.08 in 10.0 mi NNW 3.5 mph - 0.01 in   Overcast
9:48 PM 35.6 °F 31.7 °F 35.6 °F 100% 30.01 in 10.0 mi NNE 4.6 mph - N/A   Overcast
9:51 PM 35.1 °F 32.2 °F 35.1 °F 100% 30.01 in 10.0 mi North 3.5 mph - N/A   Overcast
9:58 PM 35.1 °F - 35.1 °F 100% 30.01 in 10.0 mi Calm Calm - N/A   Overcast
10:51 PM 34.0 °F - 33.1 °F 96% 30.05 in 10.0 mi Calm Calm - N/A   Overcast
11:51 PM 35.1 °F - 34.0 °F 96% 30.04 in 10.0 mi Calm Calm - N/A   Overcast